Location: Complexul Astronomic Baia Mare
(47.6577°N, 23.5639°E)
Time: 06:49:19
(UTC+03:00)

ISS - Pass Details

Date: 19 May 2017
Orbit: 402 x 408 km, 51.6° (Epoch: 29 May)

Event Time Altitude Azimuth Distance (km) Brightness Sun altitude
Exits shadow 04:05:35 - 286° (WNW) 2,042 -0.5 -13.3°
Reaches altitude 10° 04:07:02 10° 292° (WNW) 1,467 -1.2 -13.1°
Maximum altitude 04:10:10 39° 3° (N) 620 -2.4 -12.8°
Drops below altitude 10° 04:13:17 10° 75° (ENE) 1,462 -0.1 -12.4°
Sets 04:15:26 0° 83° (E) 2,320 0.8 -12.2°
